Location: Colle Pacifico
(43.5333°N, 13.3167°E)
Time: 10:18:27
(UTC+00:00)

STARLINK-80 - Pass Details

Date: 07 June 2020
Orbit: 487 x 491 km, 53.0° (Epoch: 07 July)

Event Time Altitude Azimuth Distance (km) Brightness Sun altitude
Exits shadow 00:21:35 45° 287° (WNW) 680 4.0 -21.4°
Maximum altitude 00:22:20 54° 330° (NNW) 602 3.9 -21.4°
Drops below altitude 10° 00:26:05 10° 49° (NE) 1,687 7.0 -21.2°
Sets 00:28:18 0° 54° (NE) 2,571 8.0 -21.0°
